When you browse on this site, cookies collect data to enhance your experience and personalize the content and advertising you see.
Visit our Privacy Policy to learn more. By continuing to use the site, you agree to this use of cookies and data.
  • In Schweiz
  • Länderverzeichnis
  • Für 7 Tage
  • Wassertemperatur
  • Satellitenkarten
  • Wetterkarte
  • Widgets
  • user-avatar
    Anmelden

    Stündliche Wetter Kandahar

    Heute, 25 April, Donnerstag

    Zeit Temperatur Niederschläge Wind Luftdruck Luftfeuchtigkeit
    00:00 +23°C° 0 mm 2 m/S 675 mmHg 23%
    01:00 +21°C° 0 mm 2 m/S 674 mmHg 24%
    02:00 +21°C° 0 mm 2 m/S 674 mmHg 26%
    03:00 +20°C° 0 mm 2 m/S 674 mmHg 27%
    04:00 +19°C° 0 mm 2 m/S 675 mmHg 28%
    05:00 +20°C° 0 mm 2 m/S 675 mmHg 26%
    06:00 +20°C° 0 mm 2 m/S 676 mmHg 25%
    07:00 +21°C° 0 mm 2 m/S 676 mmHg 24%
    08:00 +23°C° 0 mm 2 m/S 677 mmHg 21%
    09:00 +25°C° 0 mm 3 m/S 677 mmHg 18%
    10:00 +26°C° 0 mm 4 m/S 677 mmHg 15%
    11:00 +27°C° 0 mm 4 m/S 677 mmHg 14%
    12:00 +28°C° 0 mm 5 m/S 677 mmHg 13%
    13:00 +28°C° 0 mm 6 m/S 677 mmHg 13%
    14:00 +28°C° 0 mm 6 m/S 677 mmHg 13%
    15:00 +28°C° 0 mm 6 m/S 677 mmHg 13%
    16:00 +28°C° 0 mm 7 m/S 676 mmHg 13%
    17:00 +27°C° 0 mm 6 m/S 676 mmHg 14%
    18:00 +26°C° 0 mm 5 m/S 676 mmHg 15%
    19:00 +25°C° 0 mm 5 m/S 676 mmHg 16%
    20:00 +25°C° 0 mm 4 m/S 676 mmHg 18%
    21:00 +24°C° 0 mm 3 m/S 676 mmHg 19%
    22:00 +22°C° 0 mm 3 m/S 677 mmHg 20%
    23:00 +21°C° 0 mm 2 m/S 676 mmHg 22%

    Morgen, 26 April, Freitag

    Zeit Temperatur Niederschläge Wind Luftdruck Luftfeuchtigkeit
    00:00 +21°C° 0 mm 2 m/S 676 mmHg 23%
    01:00 +21°C° 0 mm 1 m/S 675 mmHg 24%
    02:00 +21°C° 0 mm 1 m/S 675 mmHg 25%
    03:00 +20°C° 0 mm 1 m/S 675 mmHg 26%
    04:00 +20°C° 0 mm 1 m/S 675 mmHg 27%
    05:00 +20°C° 0 mm 1 m/S 675 mmHg 25%
    06:00 +21°C° 0 mm 1 m/S 676 mmHg 23%
    07:00 +22°C° 0 mm 1 m/S 676 mmHg 21%
    08:00 +23°C° 0 mm 2 m/S 676 mmHg 19%
    09:00 +24°C° 0 mm 2 m/S 677 mmHg 16%
    10:00 +25°C° 0 mm 2 m/S 677 mmHg 14%
    11:00 +26°C° 0 mm 2 m/S 677 mmHg 13%
    12:00 +27°C° 0 mm 3 m/S 677 mmHg 12%
    13:00 +28°C° 0 mm 4 m/S 677 mmHg 10%
    14:00 +29°C° 0 mm 4 m/S 676 mmHg 10%
    15:00 +29°C° 0 mm 4 m/S 676 mmHg 10%
    16:00 +29°C° 0 mm 4 m/S 676 mmHg 10%
    17:00 +28°C° 0 mm 4 m/S 676 mmHg 11%
    18:00 +27°C° 0 mm 4 m/S 676 mmHg 12%
    19:00 +26°C° 0 mm 4 m/S 676 mmHg 13%
    20:00 +26°C° 0 mm 3 m/S 676 mmHg 14%
    21:00 +25°C° 0 mm 3 m/S 676 mmHg 15%
    22:00 +24°C° 0 mm 2 m/S 677 mmHg 16%
    23:00 +24°C° 0 mm 2 m/S 676 mmHg 18%

    übermorgen, 27 April, Samstag

    Zeit Temperatur Niederschläge Wind Luftdruck Luftfeuchtigkeit
    00:00 +23°C° 0 mm 1 m/S 676 mmHg 20%
    01:00 +20°C° 0 mm 0 m/S 676 mmHg 22%
    02:00 +20°C° 0 mm 0 m/S 676 mmHg 23%
    03:00 +21°C° 0 mm 1 m/S 675 mmHg 23%
    04:00 +21°C° 0 mm 1 m/S 675 mmHg 24%
    05:00 +22°C° 0 mm 1 m/S 676 mmHg 22%
    06:00 +23°C° 0 mm 1 m/S 677 mmHg 20%
    07:00 +24°C° 0 mm 1 m/S 677 mmHg 18%
    08:00 +25°C° 0 mm 2 m/S 678 mmHg 16%
    09:00 +26°C° 0 mm 2 m/S 678 mmHg 15%
    10:00 +27°C° 0 mm 2 m/S 678 mmHg 13%
    11:00 +28°C° 0 mm 3 m/S 678 mmHg 12%
    12:00 +29°C° 0 mm 4 m/S 677 mmHg 11%
    13:00 +30°C° 0 mm 4 m/S 677 mmHg 10%
    14:00 +30°C° 0 mm 5 m/S 677 mmHg 10%
    15:00 +30°C° 0 mm 5 m/S 676 mmHg 10%
    16:00 +30°C° 0 mm 5 m/S 676 mmHg 10%
    17:00 +29°C° 0 mm 5 m/S 676 mmHg 11%
    18:00 +28°C° 0 mm 5 m/S 676 mmHg 12%
    19:00 +28°C° 0 mm 4 m/S 676 mmHg 13%
    20:00 +27°C° 0 mm 4 m/S 676 mmHg 14%
    21:00 +26°C° 0 mm 4 m/S 676 mmHg 16%
    22:00 +25°C° 0 mm 4 m/S 676 mmHg 17%
    23:00 +24°C° 0 mm 3 m/S 676 mmHg 18%

    28 April, Sonntag

    Zeit Temperatur Niederschläge Wind Luftdruck Luftfeuchtigkeit
    00:00 +24°C° 0 mm 2 m/S 676 mmHg 19%
    01:00 +23°C° 0 mm 2 m/S 675 mmHg 21%
    02:00 +21°C° 0 mm 2 m/S 675 mmHg 22%
    03:00 +21°C° 0 mm 2 m/S 675 mmHg 23%
    04:00 +20°C° 0 mm 2 m/S 675 mmHg 24%
    05:00 +21°C° 0 mm 2 m/S 675 mmHg 23%
    06:00 +23°C° 0 mm 2 m/S 676 mmHg 22%
    07:00 +24°C° 0 mm 2 m/S 676 mmHg 21%
    08:00 +25°C° 0 mm 2 m/S 677 mmHg 18%
    09:00 +26°C° 0 mm 3 m/S 677 mmHg 16%
    10:00 +28°C° 0 mm 3 m/S 677 mmHg 14%
    11:00 +29°C° 0 mm 4 m/S 677 mmHg 12%
    12:00 +30°C° 0 mm 4 m/S 676 mmHg 10%
    13:00 +32°C° 0 mm 5 m/S 676 mmHg 9%
    14:00 +32°C° 0 mm 5 m/S 676 mmHg 8%
    15:00 +32°C° 0 mm 5 m/S 675 mmHg 8%
    16:00 +32°C° 0 mm 6 m/S 675 mmHg 8%
    17:00 +30°C° 0 mm 5 m/S 675 mmHg 9%
    18:00 +29°C° 0 mm 5 m/S 675 mmHg 10%
    19:00 +28°C° 0 mm 4 m/S 675 mmHg 11%
    20:00 +27°C° 0 mm 4 m/S 675 mmHg 12%
    21:00 +26°C° 0 mm 3 m/S 675 mmHg 14%
    22:00 +25°C° 0 mm 3 m/S 675 mmHg 15%
    23:00 +25°C° 0 mm 2 m/S 675 mmHg 17%

    29 April, Montag

    Zeit Temperatur Niederschläge Wind Luftdruck Luftfeuchtigkeit
    00:00 +24°C° 0 mm 2 m/S 674 mmHg 18%
    01:00 +23°C° 0 mm 1 m/S 674 mmHg 20%
    02:00 +22°C° 0 mm 1 m/S 673 mmHg 20%
    03:00 +22°C° 0 mm 1 m/S 673 mmHg 21%
    04:00 +19°C° 0 mm 0 m/S 673 mmHg 22%
    05:00 +22°C° 0 mm 1 m/S 673 mmHg 19%
    06:00 +24°C° 0 mm 1 m/S 674 mmHg 17%
    07:00 +25°C° 0 mm 1 m/S 674 mmHg 15%
    08:00 +26°C° 0 mm 1 m/S 674 mmHg 13%
    09:00 +27°C° 0 mm 1 m/S 674 mmHg 12%
    10:00 +29°C° 0 mm 1 m/S 674 mmHg 10%
    11:00 +30°C° 0 mm 1 m/S 674 mmHg 10%
    12:00 +31°C° 0 mm 2 m/S 673 mmHg 10%
    13:00 +31°C° 0 mm 2 m/S 673 mmHg 9%
    14:00 +32°C° 0 mm 2 m/S 673 mmHg 9%
    15:00 +32°C° 0 mm 2 m/S 672 mmHg 9%
    16:00 +32°C° 0 mm 2 m/S 672 mmHg 9%
    17:00 +31°C° 0 mm 3 m/S 672 mmHg 10%
    18:00 +31°C° 0 mm 3 m/S 672 mmHg 11%
    19:00 +30°C° 0 mm 4 m/S 672 mmHg 13%
    20:00 +29°C° 0 mm 4 m/S 672 mmHg 14%
    21:00 +28°C° 0 mm 4 m/S 672 mmHg 16%
    22:00 +27°C° 0 mm 4 m/S 672 mmHg 17%
    23:00 +26°C° 0 mm 5 m/S 672 mmHg 22%

    30 April, Dienstag

    Zeit Temperatur Niederschläge Wind Luftdruck Luftfeuchtigkeit
    00:00 +24°C° 0 mm 6 m/S 671 mmHg 26%
    01:00 +24°C° 0 mm 6 m/S 671 mmHg 30%
    02:00 +23°C° 0 mm 5 m/S 671 mmHg 32%
    03:00 +24°C° 0 mm 3 m/S 671 mmHg 34%
    04:00 +24°C° 0 mm 1 m/S 671 mmHg 36%
    05:00 +24°C° 0 mm 1 m/S 672 mmHg 34%
    06:00 +24°C° 0 mm 2 m/S 672 mmHg 33%
    07:00 +25°C° 0 mm 2 m/S 673 mmHg 31%
    08:00 +26°C° 0 mm 3 m/S 673 mmHg 27%
    09:00 +27°C° 0 mm 3 m/S 674 mmHg 23%
    10:00 +29°C° 0 mm 4 m/S 674 mmHg 19%
    11:00 +29°C° 0 mm 4 m/S 673 mmHg 17%
    12:00 +30°C° 0 mm 5 m/S 673 mmHg 16%
    13:00 +32°C° 0 mm 5 m/S 673 mmHg 14%
    14:00 +32°C° 0 mm 5 m/S 672 mmHg 14%
    15:00 +32°C° 0 mm 5 m/S 672 mmHg 14%
    16:00 +32°C° 0 mm 5 m/S 671 mmHg 14%
    17:00 +30°C° 0 mm 5 m/S 671 mmHg 15%
    18:00 +29°C° 0 mm 4 m/S 671 mmHg 16%
    19:00 +28°C° 0 mm 4 m/S 672 mmHg 17%
    20:00 +28°C° 0 mm 4 m/S 672 mmHg 19%
    21:00 +27°C° 0 mm 4 m/S 672 mmHg 20%
    22:00 +26°C° 0 mm 4 m/S 672 mmHg 21%
    23:00 +25°C° 0 mm 3 m/S 671 mmHg 23%
    Mehr zeigen